(88833) = 1977 EY4 = 2001 UD92 = 1996 HP15 = 2001 UG181 = 2001 SA169

Discovered at Socorro on 2001-09-19 by LINEAR.

Orbit

Orbit type: Main Belt

Note: WebGL enabled browser required.

epoch2023-09-13.0
epoch JD2460200.5
perihelion date2022-08-06.65292
perihelion JD2459798.15292
argument of perihelion (°)13.25842
ascending node (°)212.99554
inclination (°)0.53403
eccentricity0.1404164
perihelion distance (AU)2.0742560
Tisserand w.r.t. Jupiter3.5
ΔV w.r.t. Earth (km/sec)9.0
semimajor axis (AU)2.4130940
mean anomaly (°)105.78969
mean daily motion (°/day)0.26293140
aphelion distance (AU)2.752
period (years)3.75
P-vector [x]-0.69146854
P-vector [y]-0.66364246
P-vector [z]-0.28539437
Q-vector [x]0.72238874
Q-vector [y]-0.63798112
Q-vector [z]-0.26671068
absolute magnitude15.83
phase slope0.15
uncertainty0
referenceMPEC 2024-A55
observations used1313
oppositions19
arc length (days)17094
first opposition used1977
last opposition used2023
residual rms (arc-secs)0.70
perturbers coarse indicatorM-v
perturbers precise indicator003Ek
first observation date used1977-03-12.0
last observation date used2023-12-30.0
computer nameMPCLINUX
JD of orbit computation2456760.694692
perihelion JD uncertainty (days)5.4961E-05
argument of perihelion uncertainty (°)3.7155E-04
ascending node uncertainty (°)3.7132E-04
inclination uncertainty (°)3.8893E-06
eccentricity uncertainty 3.4676E-08
perihelion distance uncertainty (AU)8.2855E-08
Minimum Orbit Intersection Distances (in AU)
for orbit epoch: 2460200.5, reference: E2024-A55
Mercury1.61825
Venus1.35089
Earth1.06379
Mars0.4817
Jupiter2.2236
Saturn6.36117
Uranus16.1578
Neptune27.0969

Observations

1338 total observations over interval: 1977 03 12.60500 – 2023 12 30.234741
These data are available for download (format description).

Date (UT) J2000 RA J2000 Dec Magn Location Ref
1977 03 12.60500 11 31 21.79 +02 23 28.6 18.8   381 – Tokyo-Kiso MPC 7738
1977 03 12.63479 11 31 20.03 +02 23 38.9 18.8   381 – Tokyo-Kiso MPC 7738
1996 04 17.23681 14 51 46.92 -16 23 41.7 18.4   809 – European Southern Observatory, La Silla MPC 27265
1996 04 17.25000 14 51 46.30 -16 23 39.2   809 – European Southern Observatory, La Silla MPC 27265
1996 04 17.26319 14 51 45.66 -16 23 36.4   809 – European Southern Observatory, La Silla MPC 27265
1996 04 18.19653 14 51 04.04 -16 20 10.7   809 – European Southern Observatory, La Silla MPC 27265
1996 04 18.20972 14 51 03.51 -16 20 07.3   809 – European Southern Observatory, La Silla MPC 27265
1996 04 18.22292 14 51 02.87 -16 20 04.6   809 – European Southern Observatory, La Silla MPC 27265
1996 04 18.24097 14 51 02.18 -16 19 59.4 18.1   809 – European Southern Observatory, La Silla MPC 27265
1996 04 18.25417 14 51 01.49 -16 19 57.0   809 – European Southern Observatory, La Silla MPC 27265
1996 04 18.26736 14 51 00.81 -16 19 53.9   809 – European Southern Observatory, La Silla MPC 27265
1996 04 20.20208 14 49 30.74 -16 12 29.2   809 – European Southern Observatory, La Silla MPC 27265
1996 04 20.21528 14 49 30.06 -16 12 26.4   809 – European Southern Observatory, La Silla MPC 27265
1996 04 20.22847 14 49 29.37 -16 12 23.3   809 – European Southern Observatory, La Silla MPC 27265
1996 05 16.35340 14 26 59.34 -14 17 24.9 18.0 V 566 – Haleakala-NEAT/GEODSS MPC 27184
1996 05 16.37130 14 26 58.47 -14 17 20.3 18.4 V 566 – Haleakala-NEAT/GEODSS MPC 27184
1996 05 16.39706 14 26 57.24 -14 17 14.0 18.3 V 566 – Haleakala-NEAT/GEODSS MPC 27184
1996 05 19.09444 14 24 59.04 -14 06 32.6 18.4   809 – European Southern Observatory, La Silla MPC 27531
1996 05 19.10764 14 24 58.44 -14 06 29.9   809 – European Southern Observatory, La Silla MPC 27531
1996 05 19.12083 14 24 57.86 -14 06 26.4   809 – European Southern Observatory, La Silla MPC 27531
1996 05 22.06597 14 23 00.48 -13 55 47.4   809 – European Southern Observatory, La Silla MPC 27531
1996 05 22.07917 14 22 59.74 -13 55 45.0   809 – European Southern Observatory, La Silla MPC 27531
1996 05 22.09236 14 22 59.27 -13 55 44.2   809 – European Southern Observatory, La Silla MPC 27531
2001 09 19.39714 02 38 44.09 +15 33 51.9 19.7   704 – Lincoln Laboratory ETS, New Mexico MPS 36707
2001 09 19.41140 02 38 43.78 +15 33 50.7 20.4   704 – Lincoln Laboratory ETS, New Mexico MPS 36707
2001 09 19.43996 02 38 43.14 +15 33 47.9 20.1   704 – Lincoln Laboratory ETS, New Mexico MPS 36707
2001 09 19.45422 02 38 42.82 +15 33 46.4 20.0   704 – Lincoln Laboratory ETS, New Mexico MPS 36707
2001 09 20.39946 02 38 22.64 +15 32 02.1 19.6   704 – Lincoln Laboratory ETS, New Mexico MPS 36707
2001 09 20.41354 02 38 22.23 +15 32 00.2 20.3   704 – Lincoln Laboratory ETS, New Mexico MPS 36707
2001 09 20.42761 02 38 21.85 +15 31 59.6 20.2   704 – Lincoln Laboratory ETS, New Mexico MPS 36707
2001 09 20.44168 02 38 21.58 +15 31 57.2 20.6   704 – Lincoln Laboratory ETS, New Mexico MPS 36707
2001 09 20.45575 02 38 21.16 +15 31 55.6 20.9   704 – Lincoln Laboratory ETS, New Mexico MPS 36707
2001 09 30.01393 02 33 37.07 +15 08 09.6 19.9 V 049 – Uppsala-Kvistaberg MPS 44509
2001 09 30.02669 02 33 36.54 +15 08 07.7 19.5 V 049 – Uppsala-Kvistaberg MPS 44509
2001 09 30.03940 02 33 36.06 +15 08 05.3 19.5 V 049 – Uppsala-Kvistaberg MPS 44509
2001 10 15.48008 02 21 42.56 +14 07 35.3 19.8 V 691 – Steward Observatory, Kitt Peak-Spacewatch MPS 44509
2001 10 15.50126 02 21 41.39 +14 07 29.5 19.8 V 691 – Steward Observatory, Kitt Peak-Spacewatch MPS 44509
2001 10 15.51461 02 21 40.66 +14 07 25.4 20.0 V 691 – Steward Observatory, Kitt Peak-Spacewatch MPS 44509
2001 10 18.36115 02 19 04.62 +13 53 53.4 19.7   644 – Palomar Mountain/NEAT MPS 41160
2001 10 18.38442 02 19 03.31 +13 53 46.6 19.7   644 – Palomar Mountain/NEAT MPS 41160
2001 10 18.40559 02 19 02.10 +13 53 40.1 19.7   644 – Palomar Mountain/NEAT MPS 41160
2001 10 19.39070 02 18 06.81 +13 48 49.8 20.1   644 – Palomar Mountain/NEAT MPS 41160
2001 10 19.41197 02 18 05.59 +13 48 43.4 19.8   644 – Palomar Mountain/NEAT MPS 41160
2001 10 19.43306 02 18 04.38 +13 48 37.0 20.2   644 – Palomar Mountain/NEAT MPS 41160
2001 10 21.33661 02 16 16.48 +13 39 07.8 19.2   704 – Lincoln Laboratory ETS, New Mexico MPS 44509
2001 10 21.35294 02 16 15.57 +13 39 02.6 19.6   704 – Lincoln Laboratory ETS, New Mexico MPS 44509
2001 10 21.40195 02 16 12.64 +13 38 46.8 19.8   704 – Lincoln Laboratory ETS, New Mexico MPS 44509
2001 10 26.33976 02 11 27.64 +13 13 31.1 19.6   704 – Lincoln Laboratory ETS, New Mexico MPC 44262
2001 10 26.35624 02 11 26.66 +13 13 26.6 19.1   704 – Lincoln Laboratory ETS, New Mexico MPC 44262
2001 10 26.37281 02 11 25.65 +13 13 20.8 19.2   704 – Lincoln Laboratory ETS, New Mexico MPC 44262
2001 11 17.21913 01 51 58.62 +11 25 24.0 19.4   704 – Lincoln Laboratory ETS, New Mexico MPS 44509
2001 11 17.23348 01 51 57.92 +11 25 19.8 20.1   704 – Lincoln Laboratory ETS, New Mexico MPS 44509
2001 11 17.24786 01 51 57.29 +11 25 17.1 19.4   704 – Lincoln Laboratory ETS, New Mexico MPS 44509
2001 11 17.26222 01 51 56.63 +11 25 13.2 19.6   704 – Lincoln Laboratory ETS, New Mexico MPS 44509
2001 11 17.27660 01 51 56.02 +11 25 10.0 19.6   704 – Lincoln Laboratory ETS, New Mexico MPS 44509
2001 11 21.14923 01 49 14.43 +11 09 36.5 19.8   704 – Lincoln Laboratory ETS, New Mexico MPS 49484
2001 11 21.16385 01 49 13.85 +11 09 33.4 19.8   704 – Lincoln Laboratory ETS, New Mexico MPS 49484
2001 11 21.17846 01 49 13.29 +11 09 29.9 20.3   704 – Lincoln Laboratory ETS, New Mexico MPS 49484
2001 11 21.19310 01 49 12.66 +11 09 26.7 20.2   704 – Lincoln Laboratory ETS, New Mexico MPS 49484
2003 01 08.38996 09 41 43.33 +12 56 39.4 19.1   704 – Lincoln Laboratory ETS, New Mexico MPS 69854
2003 01 08.40491 09 41 42.87 +12 56 41.0 20.4   704 – Lincoln Laboratory ETS, New Mexico MPS 69854
2003 01 08.41929 09 41 42.44 +12 56 43.1 19.5   704 – Lincoln Laboratory ETS, New Mexico MPS 69854
2003 01 08.43373 09 41 42.02 +12 56 45.5 18.9   704 – Lincoln Laboratory ETS, New Mexico MPS 69854
2003 01 08.54835 09 41 39.00 +12 57 01.8 20.4   608 – Haleakala-AMOS MPS 73222
2003 01 08.55922 09 41 38.69 +12 57 02.3 20.9   608 – Haleakala-AMOS MPS 73222
2003 01 08.57051 09 41 38.33 +12 57 03.3 20.8   608 – Haleakala-AMOS MPS 73222
2003 01 17.37512 09 36 28.15 +13 21 01.5 19.3   644 – Palomar Mountain/NEAT MPS 71491
2003 01 17.40174 09 36 26.95 +13 21 07.1 19.1   644 – Palomar Mountain/NEAT MPS 71491
2003 01 17.43674 09 36 25.39 +13 21 13.6 19.2   644 – Palomar Mountain/NEAT MPS 71491
2003 01 27.31254 09 28 19.28 +13 59 25.1 18.8   704 – Lincoln Laboratory ETS, New Mexico MPS 71491
2003 01 27.32791 09 28 18.42 +13 59 29.4 19.0   704 – Lincoln Laboratory ETS, New Mexico MPS 71491
2003 01 27.34325 09 28 17.40 +13 59 34.0 19.6   704 – Lincoln Laboratory ETS, New Mexico MPS 71491
2003 01 27.35873 09 28 16.61 +13 59 37.8 19.3   704 – Lincoln Laboratory ETS, New Mexico MPS 71491
2003 01 27.37425 09 28 15.71 +13 59 41.4 19.0   704 – Lincoln Laboratory ETS, New Mexico MPS 71491
2003 01 27.45694 09 28 11.10 +14 00 03.1 18.8   644 – Palomar Mountain/NEAT MPS 71491
2003 01 27.48302 09 28 09.61 +14 00 09.5 18.8   644 – Palomar Mountain/NEAT MPS 71491
2003 01 27.50413 09 28 08.41 +14 00 15.4 18.8   644 – Palomar Mountain/NEAT MPS 71491
2003 01 28.41262 09 27 17.77 +14 04 14.2 19.3 V 291 – LPL/Spacewatch II MPS 71491
2003 01 28.43940 09 27 16.18 +14 04 21.4 19.2 V 291 – LPL/Spacewatch II MPS 71491
2003 01 28.46579 09 27 14.66 +14 04 28.0 19.2 V 291 – LPL/Spacewatch II MPS 71491
2003 02 02.29366 09 22 33.69 +14 26 27.3 18.4   644 – Palomar Mountain/NEAT MPS 73222
2003 02 02.35728 09 22 29.73 +14 26 45.3 18.6   644 – Palomar Mountain/NEAT MPS 73222
2003 02 02.41991 09 22 25.84 +14 27 02.7 18.3   644 – Palomar Mountain/NEAT MPS 73222
2003 02 03.22905 09 21 37.44 +14 30 50.8 18.7   704 – Lincoln Laboratory ETS, New Mexico MPS 71491
2003 02 03.24456 09 21 36.48 +14 30 53.7 18.9   704 – Lincoln Laboratory ETS, New Mexico MPS 71491
2003 02 03.26016 09 21 35.56 +14 30 58.7 18.8   704 – Lincoln Laboratory ETS, New Mexico MPS 71491
